Weather History for Meriden, CT

Change the Weather History Date:

Thursday, February 21, 2013

  Actual Average (KHVN) Record (KHVN)
Temperature  
Mean Temperature 28 °F -  
Max Temperature 32 °F 39 °F 46 °F (2014)
Min Temperature 23 °F 25 °F 35 °F (2014)
Degree Days  
Heating Degree Days 38    
Moisture  
Dew Point 11 °F    
Average Humidity 53    
Maximum Humidity 60    
Minimum Humidity 44    
Precipitation  
Precipitation 0.00 in - - ()
Sea Level Pressure  
Sea Level Pressure 30.01 in    
Wind  
Wind Speed 10 mph (NW)    
Max Wind Speed 20 mph    
Max Gust Speed 31 mph    
Visibility 10 miles    
Events      
Averages and records for this station are not official NWS values.
T = Trace of Precipitation, MM = Missing Value Source: NWS Daily Summary

Daily Weather History Graph

Daily Weather History Graph

Search for Another Location

Airport:

Trip Planner

Search our weather history database for the weather conditions in past years. The results will help you decide how hot, cold, wet, or windy it might be!

Date:

Astronomy

Feb. 21, 2013 Rise Set
Actual Time 6:37 AM EST 5:32 PM EST
Civil Twilight 6:09 AM EST 6:00 PM EST
Nautical Twilight 5:37 AM EST 6:33 PM EST
Astronomical Twilight 5:05 AM EST 7:05 PM EST
Moon 1:43 PM EST (2/21) 3:42 AM EST (2/21)
Length of Visible Light 11h 51m
Length of Day
10h 54m
Waxing Gibbous, 83% of the Moon is Illuminated
Feb 21
Waxing Gibbous
Feb 25
Full
Mar 4
Last Quarter
Mar 11
New
Mar 19
First Quarter

Hourly Weather History & Observations

Time (EST) Temp. Windchill Dew Point Humidity Pressure Visibility Wind Dir Wind Speed Gust Speed Precip Events Conditions
12:53 AM 24.1 °F 18.2 °F 9.0 °F 53% 29.91 in 10.0 mi West 4.6 mph - N/A   Partly Cloudy
1:53 AM 24.1 °F 17.0 °F 10.0 °F 55% 29.91 in 10.0 mi Variable 5.8 mph - N/A   Clear
2:53 AM 23.0 °F 15.8 °F 10.0 °F 58% 29.90 in 10.0 mi West 5.8 mph - N/A   Clear
3:53 AM 23.0 °F 13.1 °F 10.0 °F 58% 29.91 in 10.0 mi West 9.2 mph - N/A   Clear
4:53 AM 23.0 °F 13.9 °F 10.0 °F 58% 29.93 in 10.0 mi West 8.1 mph - N/A   Mostly Cloudy
6:53 AM 23.0 °F 15.8 °F 10.9 °F 60% 29.94 in 10.0 mi West 5.8 mph - N/A   Overcast
7:53 AM 24.1 °F 18.2 °F 10.9 °F 57% 29.95 in 10.0 mi Variable 4.6 mph - N/A   Overcast
8:53 AM 26.1 °F 15.0 °F 10.9 °F 53% 29.94 in 10.0 mi WNW 12.7 mph - N/A   Clear
9:53 AM 28.0 °F 18.1 °F 10.9 °F 49% 29.94 in 10.0 mi WNW 11.5 mph - N/A   Mostly Cloudy
10:53 AM 28.9 °F 18.6 °F 10.9 °F 47% 29.93 in 10.0 mi WNW 12.7 mph 24.2 mph N/A   Mostly Cloudy
11:53 AM 30.9 °F 19.8 °F 12.0 °F 46% 29.94 in 10.0 mi NW 16.1 mph 24.2 mph N/A   Partly Cloudy
12:53 PM 32.0 °F 20.1 °F 12.0 °F 44% 29.92 in 10.0 mi NW 19.6 mph 28.8 mph N/A   Clear
1:53 PM 32.0 °F 22.1 °F 12.9 °F 45% 29.92 in 10.0 mi NW 13.8 mph 24.2 mph N/A   Clear
2:53 PM 32.0 °F 20.8 °F 12.0 °F 44% 29.94 in 10.0 mi NNW 17.3 mph 31.1 mph N/A   Clear
3:53 PM 30.0 °F 18.3 °F 12.0 °F 47% 29.98 in 10.0 mi NNW 17.3 mph 31.1 mph N/A   Clear
4:53 PM 28.9 °F 17.7 °F 10.9 °F 47% 30.04 in 10.0 mi NNW 15.0 mph 26.5 mph N/A   Clear
5:53 PM 25.0 °F 11.7 °F 10.0 °F 53% 30.09 in 10.0 mi NNW 17.3 mph 27.6 mph N/A   Clear
6:53 PM 24.1 °F 10.6 °F 9.0 °F 53% 30.12 in 10.0 mi NW 17.3 mph 26.5 mph N/A   Clear
7:53 PM 24.1 °F 10.1 °F 9.0 °F 53% 30.14 in 10.0 mi NW 18.4 mph 26.5 mph N/A   Clear
8:53 PM 24.1 °F 13.1 °F 10.0 °F 55% 30.19 in 10.0 mi NNW 11.5 mph 20.7 mph N/A   Clear
9:53 PM 24.1 °F 13.1 °F 10.9 °F 57% 30.23 in 10.0 mi NW 11.5 mph 18.4 mph N/A   Clear
10:53 PM 24.1 °F 15.2 °F 10.9 °F 57% 30.26 in 10.0 mi NNW 8.1 mph - N/A   Clear
11:53 PM 24.1 °F 18.2 °F 12.0 °F 60% 30.28 in 10.0 mi Variable 4.6 mph - N/A   Clear